User: anonymous   Login
Location: Unspecified
(50.1700°N, 6.8600°E)
Time: 15:48:39
(UTC+00:00)
Language:

SJ-12 - Orbit

View from above orbital plane
View from above orbital plane
View from above satellite
View from above satellite

Ground track
Ground track

The orbit data is extracted from the following two-line orbital elements,

1 36596U 10027A   19079.78860519 +.00000230 +00000-0 +25231-4 0  9991
2 36596 097.6216 074.5460 0012967 046.7582 313.4722 14.96471211477832
Epoch (UTC): 20 March 2019 18:55:35
Eccentricity: 0.0012967
inclination: 97.6216°
perigee height: 569 km
apogee height: 587 km
right ascension of ascending node: 74.5460°
argument of perigee: 46.7582°
revolutions per day: 14.96471211
mean anomaly at epoch: 313.4722°
orbit number at epoch: 47783

The dashed part of the orbit path shows where the satellite is in the earth's shadow,  

DLR